Date String (YYYY-MM-DD hh:mm:ss) UTC,Instrument flags,Ambient pressure (hPa),Sample flow (lpm),Bypass flow (lpm),Sample temperature (°C),Ambient temperature (°C),ASC tube jacket temperature (°C),LED temperature (°C),Box temperature (°C),Sample RH (%),Span deviation,Mass concentration (μg/m³),Mass concentration (μg/m³),Mass concentration (μg/m³)
DateTimeUTC,F1_M11,P_M11,Q1_M11,Q2_M11,T1_M11,T2_M11,T3_M11,T4_M11,T5_M11,U1_M11,ZSPAN_M11,X2_M11,X0_M11,X1_M11
2022-09-05 21:00:00,,0827.6,4.99,0.00,29.5,28.1,00.0,38.0,31.4,16.8,0000.0,0006.79,0016.03,0005.62
2022-09-05 21:01:00,,0827.6,4.99,0.00,29.5,28.1,00.0,38.1,31.4,16.7,0000.0,0006.83,0016.24,0005.63
2022-09-05 21:02:00,,0827.6,5.01,0.00,29.5,27.1,00.0,38.1,31.3,16.7,0000.0,0006.79,0016.33,0005.64
2022-09-05 21:03:00,,0827.6,5.01,0.00,29.5,26.7,00.0,38.1,31.3,16.9,0000.0,0006.80,0016.18,0005.64
2022-09-05 21:04:00,,0827.7,4.98,0.00,29.4,27.0,00.0,38.1,31.3,17.1,0000.0,0006.81,0015.35,0005.66
2022-09-05 21:05:00,,0827.5,5.01,0.00,29.4,27.2,00.0,38.0,31.2,17.2,0000.0,0006.78,0015.21,0005.66
2022-09-05 21:06:00,,0827.5,5.00,0.00,29.4,27.5,00.0,38.0,31.2,16.9,0000.0,0006.85,0015.53,0005.66
2022-09-05 21:07:00,,0827.5,5.01,0.00,29.5,27.8,00.0,38.0,31.3,16.8,0000.0,0006.80,0015.24,0005.64
2022-09-05 21:08:00,,0827.5,4.99,0.00,29.5,28.1,00.0,38.1,31.4,16.6,0000.0,0006.77,0015.16,0005.63
2022-09-05 21:09:00,,0827.5,5.00,0.00,29.6,28.1,00.0,38.1,31.5,16.4,0000.0,0006.75,0015.32,0005.63
2022-09-05 21:10:00,,0827.5,5.01,0.00,29.5,27.1,00.0,38.1,31.4,16.4,0000.0,0006.80,0015.66,0005.66
2022-09-05 21:11:00,,0827.5,5.01,0.00,29.5,26.6,00.0,38.1,31.3,16.3,0000.0,0006.82,0015.64,0005.70
2022-09-05 21:12:00,,0827.5,4.99,0.00,29.5,27.0,00.0,38.1,31.3,16.0,0000.0,0006.86,0015.98,0005.71
2022-09-05 21:13:00,,0827.5,5.00,0.00,29.5,27.3,00.0,38.0,31.2,16.3,0000.0,0006.88,0016.71,0005.73
2022-09-05 21:14:00,,0827.5,5.03,0.00,29.5,27.6,00.0,38.0,31.2,16.5,0000.0,0006.88,0016.99,0005.74
2022-09-05 21:15:00,,0827.5,5.01,0.00,29.5,27.9,00.0,38.1,31.3,16.6,0000.0,0006.85,0017.41,0005.73
2022-09-05 21:16:00,,0827.5,4.98,0.00,29.5,28.1,00.0,38.1,31.4,16.2,0000.0,0006.82,0016.39,0005.74
2022-09-05 21:17:00,,0827.5,5.01,0.00,29.5,27.5,00.0,38.1,31.3,16.3,0000.0,0006.74,0016.44,0005.75
2022-09-05 21:18:00,,0827.5,5.01,0.00,29.5,26.6,00.0,38.1,31.2,16.3,0000.0,0006.76,0016.85,0005.77
2022-09-05 21:19:00,,0827.5,5.00,0.00,29.4,26.7,00.0,38.1,31.3,16.2,0000.0,0006.77,0018.23,0005.79
2022-09-05 21:20:00,,0827.5,4.99,0.00,29.4,27.1,00.0,38.0,31.2,16.3,0000.0,0006.82,0018.82,0005.82
2022-09-05 21:21:00,,0827.5,4.99,0.00,29.4,27.4,00.0,38.0,31.2,16.4,0000.0,0006.83,0020.02,0005.81
2022-09-05 21:22:00,,0827.5,5.01,0.00,29.4,27.7,00.0,38.0,31.2,16.7,0000.0,0006.78,0020.63,0005.80
2022-09-05 21:23:00,,0827.5,5.01,0.00,29.5,28.0,00.0,38.0,31.3,16.8,0000.0,0006.80,0019.99,0005.80
2022-09-05 21:24:00,,0827.4,5.00,0.00,29.5,28.2,00.0,38.1,31.4,16.4,0000.0,0006.82,0019.32,0005.80
2022-09-05 21:25:00,,0827.4,5.00,0.00,29.5,27.6,00.0,38.1,31.4,16.5,0000.0,0006.82,0018.77,0005.81
2022-09-05 21:26:00,,0827.4,5.00,0.00,29.5,26.7,00.0,38.1,31.3,16.6,0000.0,0006.90,0018.55,0005.83
2022-09-05 21:27:00,,0827.4,4.99,0.00,29.5,26.8,00.0,38.1,31.3,16.4,0000.0,0006.93,0018.75,0005.85
2022-09-05 21:28:00,,0827.4,5.00,0.00,29.4,27.1,00.0,38.0,31.2,16.5,0000.0,0006.96,0018.73,0005.87
2022-09-05 21:29:00,,0827.4,5.00,0.00,29.4,27.4,00.0,38.0,31.2,16.5,0000.0,0007.00,0018.56,0005.87
2022-09-05 21:30:00,,0827.4,5.00,0.00,29.5,27.7,00.0,38.0,31.2,16.3,0000.0,0007.04,0017.31,0005.89
2022-09-05 21:31:00,,0827.4,5.00,0.00,29.5,28.0,00.0,38.1,31.3,16.5,0000.0,0007.04,0016.51,0005.88
2022-09-05 21:32:00,,0827.4,5.01,0.00,29.5,27.9,00.0,38.1,31.4,16.7,0000.0,0007.09,0015.09,0005.89
2022-09-05 21:33:00,,0827.4,4.99,0.00,29.5,26.9,00.0,38.1,31.2,16.7,0000.0,0007.07,0014.04,0005.91
2022-09-05 21:34:00,,0827.4,4.99,0.00,29.4,26.6,00.0,38.1,31.2,17.0,0000.0,0007.03,0014.08,0005.91
2022-09-05 21:35:00,,0827.4,5.00,0.00,29.4,26.9,00.0,38.0,31.2,16.9,0000.0,0007.06,0015.43,0005.91
2022-09-05 21:36:00,,0827.4,5.00,0.00,29.4,27.2,00.0,38.0,31.1,16.7,0000.0,0007.12,0016.18,0005.92
2022-09-05 21:37:00,,0827.4,5.01,0.00,29.4,27.5,00.0,38.0,31.2,16.8,0000.0,0007.06,0015.64,0005.92
2022-09-05 21:38:00,,0827.4,5.01,0.00,29.4,27.8,00.0,38.0,31.3,16.9,0000.0,0007.09,0015.45,0005.92
2022-09-05 21:39:00,,0827.4,5.00,0.00,29.5,28.1,00.0,38.0,31.4,17.0,0000.0,0007.08,0015.14,0005.92
2022-09-05 21:40:00,,0827.4,4.99,0.00,29.5,27.4,00.0,38.0,31.4,16.6,0000.0,0007.08,0014.87,0005.91
2022-09-05 21:41:00,,0827.4,5.01,0.00,29.4,26.6,00.0,38.0,31.2,16.7,0000.0,0007.05,0016.37,0005.89
2022-09-05 21:42:00,,0827.4,4.99,0.00,29.4,26.7,00.0,38.0,31.2,16.7,0000.0,0007.07,0017.07,0005.90
2022-09-05 21:43:00,,0827.4,5.01,0.00,29.4,27.1,00.0,38.0,31.2,16.7,0000.0,0007.01,0017.35,0005.89
2022-09-05 21:44:00,,0827.4,4.99,0.00,29.4,27.4,00.0,38.0,31.2,16.7,0000.0,0006.98,0017.55,0005.86
2022-09-05 21:45:00,,0827.4,5.00,0.00,29.4,27.7,00.0,38.0,31.2,16.9,0000.0,0007.01,0019.14,0005.83
2022-09-05 21:46:00,,0827.4,5.01,0.00,29.5,28.0,00.0,38.0,31.3,17.0,0000.0,0006.97,0018.26,0005.83
2022-09-05 21:47:00,,0827.4,5.01,0.00,29.5,28.2,00.0,38.0,31.4,17.3,0000.0,0006.92,0017.81,0005.81
2022-09-05 21:48:00,,0827.4,4.99,0.00,29.5,27.5,00.0,38.1,31.4,17.6,0000.0,0006.95,0018.40,0005.79
2022-09-05 21:49:00,,0827.4,5.00,0.00,29.5,26.6,00.0,38.1,31.3,17.1,0000.0,0006.93,0018.31,0005.77
2022-09-05 21:50:00,,0827.4,5.00,0.00,29.5,26.8,00.0,38.0,31.3,17.4,0000.0,0006.98,0018.24,0005.75
2022-09-05 21:51:00,,0827.4,4.99,0.00,29.4,27.1,00.0,38.0,31.3,17.5,0000.0,0006.98,0019.41,0005.77
2022-09-05 21:52:00,,0827.4,5.00,0.00,29.4,27.4,00.0,38.0,31.3,17.2,0000.0,0006.95,0018.74,0005.78
2022-09-05 21:53:00,,0827.4,5.00,0.00,29.5,27.7,00.0,38.0,31.3,17.1,0000.0,0006.92,0017.41,0005.77
2022-09-05 21:54:00,,0827.4,5.01,0.00,29.5,28.0,00.0,38.0,31.4,17.2,0000.0,0006.92,0016.93,0005.76
2022-09-05 21:55:00,,0827.4,5.00,0.00,29.5,27.9,00.0,38.1,31.4,17.3,0000.0,0006.95,0016.69,0005.77
2022-09-05 21:56:00,,0827.4,4.99,0.00,29.5,26.9,00.0,38.1,31.3,17.1,0000.0,0006.97,0016.20,0005.79
2022-09-05 21:57:00,,0827.4,5.00,0.00,29.4,26.6,00.0,38.0,31.2,16.9,0000.0,0006.99,0016.50,0005.79
2022-09-05 21:58:00,,0827.4,5.00,0.00,29.4,26.9,00.0,38.0,31.3,17.2,0000.0,0006.97,0015.87,0005.80
2022-09-05 21:59:00,,0827.3,5.00,0.00,29.4,27.3,00.0,38.0,31.1,17.1,0000.0,0006.97,0015.42,0005.80
